PCM7688 KSBP-KONT

Flight info

Callsign PCM7688
Flight time 1h 10m
Altitude 7000
Route RZS V186 HENER FIM V186 ITSME V264 POM PDZ
Aircraft C208/L-SDFGR/C

Departure

Time 2026-04-24 01:35
Airport San Luis County Regional Airport (KSBP)

Arrival

Time 2026-04-24 02:45
Airport Ontario International Airport (KONT)
Time Latitude Longitude Altitude Speed Heading
2026-04-24 01:13 35.23428 -120.63285 214 ft 0 kts 228°
2026-04-24 01:27 35.23430 -120.63300 214 ft 7 kts 288°
2026-04-24 01:27 35.23441 -120.63375 210 ft 7 kts 198°
2026-04-24 01:27 35.23383 -120.63296 215 ft 18 kts 126°
2026-04-24 01:27 35.23320 -120.63237 218 ft 0 kts 220°
2026-04-24 01:33 35.23284 -120.63293 216 ft 16 kts 263°
2026-04-24 01:34 35.23295 -120.63333 215 ft 4 kts 306°
2026-04-24 01:34 35.23437 -120.63579 207 ft 66 kts 306°
2026-04-24 01:34 35.23743 -120.64150 366 ft 90 kts 304°
2026-04-24 01:34 35.24129 -120.64874 513 ft 112 kts 305°
2026-04-24 01:35 35.24530 -120.65776 795 ft 123 kts 294°
2026-04-24 01:35 35.24600 -120.66792 1278 ft 120 kts 263°
2026-04-24 01:35 35.24156 -120.67702 1580 ft 136 kts 227°
2026-04-24 01:35 35.23282 -120.68326 1728 ft 153 kts 208°
2026-04-24 01:36 35.22209 -120.68422 2054 ft 157 kts 167°
2026-04-24 01:36 35.21335 -120.67742 2553 ft 146 kts 121°
2026-04-24 01:36 35.20904 -120.66688 3055 ft 132 kts 102°
2026-04-24 01:36 35.20652 -120.65655 3555 ft 126 kts 110°
2026-04-24 01:37 35.20103 -120.64841 4044 ft 122 kts 130°
2026-04-24 01:37 35.19514 -120.64139 4560 ft 114 kts 128°
2026-04-24 01:37 35.18982 -120.63479 5022 ft 103 kts 126°
2026-04-24 01:37 35.18520 -120.62871 5438 ft 96 kts 126°
2026-04-24 01:38 35.18052 -120.62253 5757 ft 105 kts 126°
2026-04-24 01:38 35.17517 -120.61555 6018 ft 120 kts 129°
2026-04-24 01:38 35.16909 -120.60788 6295 ft 133 kts 131°
2026-04-24 01:38 35.16233 -120.59937 6548 ft 143 kts 131°
2026-04-24 01:39 35.15529 -120.59048 6786 ft 151 kts 131°
2026-04-24 01:39 35.14787 -120.58102 6978 ft 160 kts 132°
2026-04-24 01:39 35.13981 -120.57075 7011 ft 174 kts 131°
2026-04-24 01:39 35.13130 -120.55979 7020 ft 181 kts 132°
2026-04-24 01:40 35.12549 -120.55233 7024 ft 183 kts 132°
2026-04-24 01:40 35.11666 -120.54092 7022 ft 185 kts 132°
2026-04-24 01:40 35.10776 -120.52942 7025 ft 186 kts 132°
2026-04-24 01:40 35.09883 -120.51796 7015 ft 187 kts 132°
2026-04-24 01:41 35.08989 -120.50645 7017 ft 188 kts 132°
2026-04-24 01:41 35.08087 -120.49479 7011 ft 190 kts 132°
2026-04-24 01:41 35.07175 -120.48306 7011 ft 191 kts 132°
2026-04-24 01:41 35.06259 -120.47129 7007 ft 191 kts 132°
2026-04-24 01:42 35.05353 -120.45971 7006 ft 186 kts 132°
2026-04-24 01:42 35.04461 -120.44837 7005 ft 184 kts 132°
2026-04-24 01:42 35.03580 -120.43712 7003 ft 183 kts 132°
2026-04-24 01:42 35.02704 -120.42593 7001 ft 182 kts 132°
2026-04-24 01:43 35.01830 -120.41476 7006 ft 182 kts 132°
2026-04-24 01:43 35.00952 -120.40355 7005 ft 181 kts 132°
2026-04-24 01:43 35.00089 -120.39255 7005 ft 178 kts 132°
2026-04-24 01:43 34.99236 -120.38167 7006 ft 177 kts 132°
2026-04-24 01:44 34.98389 -120.37084 7016 ft 176 kts 132°
2026-04-24 01:44 34.97550 -120.36015 7015 ft 177 kts 131°
2026-04-24 01:44 34.96698 -120.34926 7016 ft 177 kts 132°
2026-04-24 01:44 34.95850 -120.33837 7009 ft 177 kts 132°
2026-04-24 01:45 34.94996 -120.32743 7006 ft 177 kts 131°
2026-04-24 01:45 34.94146 -120.31659 7005 ft 177 kts 132°
2026-04-24 01:45 34.93296 -120.30575 7009 ft 177 kts 132°
2026-04-24 01:45 34.92447 -120.29492 7001 ft 176 kts 132°
2026-04-24 01:46 34.91598 -120.28414 7008 ft 177 kts 132°
2026-04-24 01:46 34.90748 -120.27329 7006 ft 177 kts 131°
2026-04-24 01:46 34.89895 -120.26242 7003 ft 177 kts 132°
2026-04-24 01:46 34.89042 -120.25158 6995 ft 177 kts 132°
2026-04-24 01:47 34.88190 -120.24078 6998 ft 177 kts 132°
2026-04-24 01:47 34.87340 -120.22995 6995 ft 176 kts 131°
2026-04-24 01:47 34.86493 -120.21915 6998 ft 176 kts 132°
2026-04-24 01:47 34.85652 -120.20831 6987 ft 175 kts 131°
2026-04-24 01:48 34.84817 -120.19751 6994 ft 175 kts 131°
2026-04-24 01:48 34.83977 -120.18670 6999 ft 176 kts 132°
2026-04-24 01:48 34.83130 -120.17587 7006 ft 177 kts 131°
2026-04-24 01:48 34.82277 -120.16500 7004 ft 177 kts 132°
2026-04-24 01:49 34.81423 -120.15409 7004 ft 178 kts 132°
2026-04-24 01:49 34.80565 -120.14317 7002 ft 178 kts 132°
2026-04-24 01:49 34.79713 -120.13224 7002 ft 178 kts 132°
2026-04-24 01:49 34.78851 -120.12135 7003 ft 178 kts 133°
2026-04-24 01:50 34.77992 -120.11048 7003 ft 178 kts 132°
2026-04-24 01:50 34.77139 -120.09960 7004 ft 178 kts 132°
2026-04-24 01:50 34.76295 -120.08890 6996 ft 177 kts 132°
2026-04-24 01:50 34.75438 -120.07813 7001 ft 177 kts 132°
2026-04-24 01:51 34.74579 -120.06735 7009 ft 178 kts 132°
2026-04-24 01:51 34.73720 -120.05651 7002 ft 177 kts 131°
2026-04-24 01:51 34.72873 -120.04570 6998 ft 176 kts 131°
2026-04-24 01:51 34.72025 -120.03495 7007 ft 176 kts 131°
2026-04-24 01:52 34.71168 -120.02421 7012 ft 177 kts 131°
2026-04-24 01:52 34.70314 -120.01345 7017 ft 177 kts 131°
2026-04-24 01:52 34.69461 -120.00260 7014 ft 177 kts 131°
2026-04-24 01:52 34.68610 -119.99178 7010 ft 177 kts 131°
2026-04-24 01:53 34.67758 -119.98096 7014 ft 177 kts 131°
2026-04-24 01:53 34.66913 -119.97035 7008 ft 173 kts 132°
2026-04-24 01:53 34.66078 -119.95988 7005 ft 172 kts 132°
2026-04-24 01:53 34.65249 -119.94951 6993 ft 170 kts 132°
2026-04-24 01:54 34.64426 -119.93914 7010 ft 171 kts 132°
2026-04-24 01:54 34.63602 -119.92878 7008 ft 171 kts 132°
2026-04-24 01:54 34.62776 -119.91837 7012 ft 171 kts 132°
2026-04-24 01:54 34.61948 -119.90795 7008 ft 171 kts 132°
2026-04-24 01:55 34.61133 -119.89763 7007 ft 172 kts 132°
2026-04-24 01:55 34.60306 -119.88715 7003 ft 172 kts 133°
2026-04-24 01:55 34.59477 -119.87668 6994 ft 172 kts 133°
2026-04-24 01:55 34.58650 -119.86627 6962 ft 171 kts 133°
2026-04-24 01:56 34.57822 -119.85587 6963 ft 171 kts 133°
2026-04-24 01:56 34.56992 -119.84547 6967 ft 172 kts 132°
2026-04-24 01:56 34.56161 -119.83504 6965 ft 172 kts 133°
2026-04-24 01:56 34.55334 -119.82462 6965 ft 171 kts 132°
2026-04-24 01:57 34.54503 -119.81416 6975 ft 172 kts 132°
2026-04-24 01:57 34.53673 -119.80365 6976 ft 173 kts 132°
2026-04-24 01:57 34.52835 -119.79310 6973 ft 174 kts 132°
2026-04-24 01:57 34.51996 -119.78257 6970 ft 174 kts 132°
2026-04-24 01:58 34.51167 -119.77187 6970 ft 173 kts 129°
2026-04-24 01:58 34.50442 -119.76020 6969 ft 173 kts 123°
2026-04-24 01:58 34.49777 -119.74808 6965 ft 172 kts 121°
2026-04-24 01:58 34.49122 -119.73593 6957 ft 171 kts 121°
2026-04-24 01:59 34.48473 -119.72388 6950 ft 170 kts 121°
2026-04-24 01:59 34.47835 -119.71206 6940 ft 168 kts 121°
2026-04-24 01:59 34.47203 -119.70013 6947 ft 168 kts 121°
2026-04-24 01:59 34.46568 -119.68841 6979 ft 166 kts 121°
2026-04-24 02:00 34.45929 -119.67663 6995 ft 168 kts 121°
2026-04-24 02:00 34.45286 -119.66479 7002 ft 169 kts 121°
2026-04-24 02:00 34.44638 -119.65286 7001 ft 170 kts 121°
2026-04-24 02:00 34.43986 -119.64093 6996 ft 170 kts 122°
2026-04-24 02:01 34.43339 -119.62897 7001 ft 170 kts 121°
2026-04-24 02:01 34.42690 -119.61699 7001 ft 170 kts 122°
2026-04-24 02:01 34.42041 -119.60497 7008 ft 171 kts 121°
2026-04-24 02:01 34.41389 -119.59294 6996 ft 170 kts 122°
2026-04-24 02:02 34.40738 -119.58097 7001 ft 170 kts 122°
2026-04-24 02:02 34.40094 -119.56917 7001 ft 170 kts 122°
2026-04-24 02:02 34.39443 -119.55722 7000 ft 170 kts 122°
2026-04-24 02:02 34.38788 -119.54522 6999 ft 171 kts 122°
2026-04-24 02:03 34.37479 -119.52121 6998 ft 171 kts 122°
2026-04-24 02:03 34.36826 -119.50923 6994 ft 170 kts 122°
2026-04-24 02:03 34.36175 -119.49730 6996 ft 170 kts 122°
2026-04-24 02:04 34.35524 -119.48537 7004 ft 170 kts 122°
2026-04-24 02:04 34.34874 -119.47344 7008 ft 170 kts 122°
2026-04-24 02:04 34.34222 -119.46152 7007 ft 170 kts 122°
2026-04-24 02:04 34.33571 -119.44958 7005 ft 170 kts 122°
2026-04-24 02:05 34.32919 -119.43763 7004 ft 170 kts 122°
2026-04-24 02:05 34.32270 -119.42571 7006 ft 170 kts 120°
2026-04-24 02:05 34.31835 -119.41258 7009 ft 168 kts 98°
2026-04-24 02:05 34.31802 -119.39856 7009 ft 167 kts 84°
2026-04-24 02:06 34.31905 -119.38472 7009 ft 167 kts 82°
2026-04-24 02:06 34.32029 -119.37075 7009 ft 167 kts 81°
2026-04-24 02:06 34.32160 -119.35676 7012 ft 167 kts 81°
2026-04-24 02:06 34.32288 -119.34276 7014 ft 168 kts 82°
2026-04-24 02:07 34.32409 -119.32872 7010 ft 168 kts 81°
2026-04-24 02:07 34.32521 -119.31470 7002 ft 167 kts 82°
2026-04-24 02:07 34.32627 -119.30073 7003 ft 167 kts 83°
2026-04-24 02:07 34.32734 -119.28672 7012 ft 167 kts 83°
2026-04-24 02:08 34.32840 -119.27291 7009 ft 167 kts 82°
2026-04-24 02:08 34.32948 -119.25885 7008 ft 168 kts 83°
2026-04-24 02:08 34.33054 -119.24478 7008 ft 168 kts 83°
2026-04-24 02:08 34.33159 -119.23055 7004 ft 167 kts 83°
2026-04-24 02:09 34.33263 -119.21654 7008 ft 167 kts 83°
2026-04-24 02:09 34.33371 -119.20254 7004 ft 167 kts 82°
2026-04-24 02:09 34.33485 -119.18857 7010 ft 167 kts 83°
2026-04-24 02:09 34.33591 -119.17477 7007 ft 167 kts 83°
2026-04-24 02:10 34.33693 -119.16077 7003 ft 167 kts 83°
2026-04-24 02:10 34.33795 -119.14670 7002 ft 168 kts 83°
2026-04-24 02:10 34.33898 -119.13267 7000 ft 167 kts 83°
2026-04-24 02:10 34.34001 -119.11865 6996 ft 167 kts 83°
2026-04-24 02:11 34.34107 -119.10450 7000 ft 167 kts 83°
2026-04-24 02:11 34.34210 -119.09050 7000 ft 167 kts 83°
2026-04-24 02:11 34.34312 -119.07649 7006 ft 167 kts 83°
2026-04-24 02:11 34.34415 -119.06265 7002 ft 167 kts 83°
2026-04-24 02:12 34.34520 -119.04843 7004 ft 167 kts 83°
2026-04-24 02:12 34.34625 -119.03439 7004 ft 168 kts 83°
2026-04-24 02:12 34.34729 -119.02034 7006 ft 168 kts 84°
2026-04-24 02:12 34.34831 -119.00628 7009 ft 168 kts 83°
2026-04-24 02:13 34.34934 -118.99220 7006 ft 168 kts 83°
2026-04-24 02:13 34.35037 -118.97809 7003 ft 168 kts 84°
2026-04-24 02:13 34.35138 -118.96399 7004 ft 168 kts 84°
2026-04-24 02:13 34.35243 -118.94986 7010 ft 168 kts 84°
2026-04-24 02:14 34.35349 -118.93573 7007 ft 168 kts 84°
2026-04-24 02:14 34.35452 -118.92179 7004 ft 168 kts 84°
2026-04-24 02:14 34.35557 -118.90755 7008 ft 168 kts 83°
2026-04-24 02:14 34.35659 -118.89363 7004 ft 168 kts 84°
2026-04-24 02:15 34.35655 -118.87957 7003 ft 168 kts 99°
2026-04-24 02:15 34.35263 -118.86627 7005 ft 168 kts 112°
2026-04-24 02:15 34.34807 -118.85325 7006 ft 168 kts 112°
2026-04-24 02:15 34.34358 -118.84018 7003 ft 168 kts 112°
2026-04-24 02:16 34.33912 -118.82710 7003 ft 168 kts 111°
2026-04-24 02:16 34.33462 -118.81387 7001 ft 168 kts 111°
2026-04-24 02:16 34.33019 -118.80087 7000 ft 168 kts 111°
2026-04-24 02:16 34.32573 -118.78783 7001 ft 167 kts 111°
2026-04-24 02:17 34.32127 -118.77479 7000 ft 167 kts 111°
2026-04-24 02:17 34.31682 -118.76178 7003 ft 168 kts 111°
2026-04-24 02:17 34.31255 -118.74929 7005 ft 168 kts 111°
2026-04-24 02:17 34.30811 -118.73625 6999 ft 168 kts 111°
2026-04-24 02:18 34.30513 -118.72756 6998 ft 168 kts 111°
2026-04-24 02:18 34.30067 -118.71448 6995 ft 168 kts 111°
2026-04-24 02:18 34.29621 -118.70140 6994 ft 168 kts 111°
2026-04-24 02:18 34.29174 -118.68834 6997 ft 168 kts 111°
2026-04-24 02:19 34.28729 -118.67530 6996 ft 168 kts 111°
2026-04-24 02:19 34.28279 -118.66217 6996 ft 168 kts 111°
2026-04-24 02:19 34.27835 -118.64915 7002 ft 168 kts 111°
2026-04-24 02:19 34.27388 -118.63602 6995 ft 169 kts 111°
2026-04-24 02:20 34.26939 -118.62293 7000 ft 168 kts 111°
2026-04-24 02:20 34.26492 -118.60993 6996 ft 168 kts 111°
2026-04-24 02:20 34.26041 -118.59681 6998 ft 168 kts 111°
2026-04-24 02:20 34.25592 -118.58376 7000 ft 168 kts 111°
2026-04-24 02:21 34.25144 -118.57072 6998 ft 168 kts 112°
2026-04-24 02:21 34.24693 -118.55758 7000 ft 168 kts 111°
2026-04-24 02:21 34.24243 -118.54450 7000 ft 169 kts 112°
2026-04-24 02:21 34.23793 -118.53143 7001 ft 169 kts 112°
2026-04-24 02:22 34.23341 -118.51830 6999 ft 169 kts 111°
2026-04-24 02:22 34.22890 -118.50518 6999 ft 169 kts 112°
2026-04-24 02:22 34.22439 -118.49206 7000 ft 169 kts 112°
2026-04-24 02:22 34.22000 -118.47886 7001 ft 169 kts 110°
2026-04-24 02:23 34.21593 -118.46553 6996 ft 169 kts 109°
2026-04-24 02:23 34.21197 -118.45214 6998 ft 169 kts 109°
2026-04-24 02:23 34.20802 -118.43878 7000 ft 169 kts 109°
2026-04-24 02:23 34.20406 -118.42536 6999 ft 170 kts 109°
2026-04-24 02:24 34.20007 -118.41196 7009 ft 169 kts 109°
2026-04-24 02:24 34.19604 -118.39859 7009 ft 169 kts 109°
2026-04-24 02:24 34.19200 -118.38521 7010 ft 169 kts 109°
2026-04-24 02:24 34.18795 -118.37186 7009 ft 169 kts 109°
2026-04-24 02:25 34.18391 -118.35852 7006 ft 169 kts 109°
2026-04-24 02:25 34.17991 -118.34538 7005 ft 168 kts 109°
2026-04-24 02:25 34.17584 -118.33196 7010 ft 168 kts 109°
2026-04-24 02:25 34.17180 -118.31869 7009 ft 169 kts 109°
2026-04-24 02:26 34.16776 -118.30541 7003 ft 168 kts 109°
2026-04-24 02:26 34.16372 -118.29217 7007 ft 168 kts 109°
2026-04-24 02:26 34.15967 -118.27890 7007 ft 168 kts 109°
2026-04-24 02:26 34.15562 -118.26558 7011 ft 169 kts 109°
2026-04-24 02:27 34.15156 -118.25230 7009 ft 169 kts 109°
2026-04-24 02:27 34.14750 -118.23896 7009 ft 169 kts 109°
2026-04-24 02:27 34.14344 -118.22562 7007 ft 169 kts 109°
2026-04-24 02:27 34.13944 -118.21250 7008 ft 169 kts 109°
2026-04-24 02:28 34.13530 -118.19919 7004 ft 169 kts 110°
2026-04-24 02:28 34.13108 -118.18578 7007 ft 169 kts 110°
2026-04-24 02:28 34.12694 -118.17248 7008 ft 169 kts 109°
2026-04-24 02:28 34.12284 -118.15914 7010 ft 169 kts 109°
2026-04-24 02:29 34.11876 -118.14581 7008 ft 169 kts 109°
2026-04-24 02:29 34.11468 -118.13251 7007 ft 169 kts 109°
2026-04-24 02:29 34.11062 -118.11920 7007 ft 169 kts 109°
2026-04-24 02:29 34.10658 -118.10593 7008 ft 168 kts 109°
2026-04-24 02:30 34.10251 -118.09265 7009 ft 168 kts 109°
2026-04-24 02:30 34.09846 -118.07942 7007 ft 168 kts 109°
2026-04-24 02:30 34.09437 -118.06618 7009 ft 169 kts 109°
2026-04-24 02:30 34.09030 -118.05291 7011 ft 169 kts 109°
2026-04-24 02:31 34.08621 -118.03965 7011 ft 169 kts 109°
2026-04-24 02:31 34.08212 -118.02638 7008 ft 169 kts 109°
2026-04-24 02:31 34.07805 -118.01312 7011 ft 169 kts 109°
2026-04-24 02:31 34.07548 -117.99938 7008 ft 168 kts 93°
2026-04-24 02:32 34.07539 -117.98533 7010 ft 168 kts 87°
2026-04-24 02:32 34.07574 -117.97126 7007 ft 168 kts 87°
2026-04-24 02:32 34.07608 -117.95726 7008 ft 167 kts 87°
2026-04-24 02:32 34.07639 -117.94322 7009 ft 167 kts 87°
2026-04-24 02:33 34.07769 -117.92935 7010 ft 166 kts 76°
2026-04-24 02:33 34.08044 -117.91578 7009 ft 166 kts 74°
2026-04-24 02:33 34.08347 -117.90228 7022 ft 167 kts 72°
2026-04-24 02:33 34.08407 -117.88851 7013 ft 168 kts 101°
2026-04-24 02:34 34.08121 -117.87502 6985 ft 170 kts 105°
2026-04-24 02:34 34.07765 -117.86090 6745 ft 180 kts 107°
2026-04-24 02:34 34.07366 -117.84638 6465 ft 185 kts 107°
2026-04-24 02:34 34.06941 -117.83153 6095 ft 188 kts 108°
2026-04-24 02:35 34.06515 -117.81694 5709 ft 181 kts 108°
2026-04-24 02:35 34.06096 -117.80269 5338 ft 179 kts 108°
2026-04-24 02:35 34.05681 -117.78862 4967 ft 177 kts 109°
2026-04-24 02:35 34.05277 -117.77475 4597 ft 175 kts 108°
2026-04-24 02:36 34.04875 -117.76104 4282 ft 171 kts 109°
2026-04-24 02:36 34.04488 -117.74775 4142 ft 164 kts 108°
2026-04-24 02:36 34.04116 -117.73506 4074 ft 157 kts 108°
2026-04-24 02:36 34.03757 -117.72280 4041 ft 153 kts 108°
2026-04-24 02:37 34.03403 -117.71075 3948 ft 155 kts 109°
2026-04-24 02:37 34.03048 -117.69831 3790 ft 158 kts 108°
2026-04-24 02:37 34.02685 -117.68569 3645 ft 159 kts 109°
2026-04-24 02:37 34.02339 -117.67308 3566 ft 157 kts 108°
2026-04-24 02:38 34.01998 -117.66081 3543 ft 154 kts 108°
2026-04-24 02:38 34.01660 -117.64854 3525 ft 152 kts 109°
2026-04-24 02:38 34.01326 -117.63646 3526 ft 152 kts 108°
2026-04-24 02:38 34.00991 -117.62441 3519 ft 151 kts 108°
2026-04-24 02:39 34.00655 -117.61249 3509 ft 149 kts 109°
2026-04-24 02:39 34.00334 -117.60079 3505 ft 148 kts 108°
2026-04-24 02:39 34.00012 -117.58895 3506 ft 148 kts 108°
2026-04-24 02:39 33.99686 -117.57717 3508 ft 148 kts 108°
2026-04-24 02:40 33.99358 -117.56527 3511 ft 148 kts 108°
2026-04-24 02:40 33.99034 -117.55348 3516 ft 148 kts 108°
2026-04-24 02:40 33.98776 -117.54147 3507 ft 148 kts 109°
2026-04-24 02:40 33.98388 -117.53019 3487 ft 148 kts 114°
2026-04-24 02:41 33.98318 -117.51821 3494 ft 148 kts 67°
2026-04-24 02:41 33.99012 -117.50958 3492 ft 145 kts 31°
2026-04-24 02:41 33.99902 -117.50402 3488 ft 144 kts
2026-04-24 02:41 34.00892 -117.50335 3487 ft 143 kts 360°
2026-04-24 02:42 34.01886 -117.50333 3270 ft 139 kts 354°
2026-04-24 02:42 34.02754 -117.50559 3059 ft 117 kts 330°
2026-04-24 02:42 34.03391 -117.51101 2973 ft 108 kts 315°
2026-04-24 02:42 34.03957 -117.51747 2704 ft 113 kts 311°
2026-04-24 02:43 34.04532 -117.52460 2375 ft 119 kts 305°
2026-04-24 02:43 34.04922 -117.53224 2045 ft 108 kts 295°
2026-04-24 02:43 34.05198 -117.53967 1947 ft 93 kts 282°
2026-04-24 02:43 34.05346 -117.54731 1793 ft 93 kts 274°
2026-04-24 02:44 34.05448 -117.55496 1548 ft 93 kts 276°
2026-04-24 02:44 34.05501 -117.56256 1371 ft 90 kts 268°
2026-04-24 02:44 34.05496 -117.56982 1237 ft 85 kts 263°
2026-04-24 02:44 34.05498 -117.57710 1080 ft 86 kts 264°
2026-04-24 02:45 34.05496 -117.58428 967 ft 84 kts 266°
2026-04-24 02:45 34.05499 -117.59079 947 ft 68 kts 264°
2026-04-24 02:45 34.05498 -117.59579 944 ft 47 kts 269°
2026-04-24 02:45 34.05510 -117.59896 943 ft 31 kts 288°
2026-04-24 02:46 34.05597 -117.59990 944 ft 0 kts 352°
2026-04-24 02:47 34.05602 -117.59991 944 ft 5 kts 352°
2026-04-24 02:47 34.05700 -117.59994 944 ft 23 kts
2026-04-24 02:48 34.05795 -117.60023 944 ft 15 kts 291°
2026-04-24 02:48 34.05799 -117.60191 944 ft 25 kts 270°
2026-04-24 02:48 34.05798 -117.60433 945 ft 32 kts 270°
2026-04-24 02:48 34.05799 -117.60726 944 ft 37 kts 270°
2026-04-24 02:49 34.05800 -117.61032 943 ft 22 kts 268°
2026-04-24 02:49 34.05797 -117.61253 942 ft 31 kts 270°
2026-04-24 02:49 34.05796 -117.61535 943 ft 36 kts 271°
2026-04-24 02:49 34.05797 -117.61778 943 ft 25 kts 269°
2026-04-24 02:50 34.05797 -117.62025 944 ft 33 kts 269°
2026-04-24 02:50 34.05821 -117.62195 945 ft 17 kts 341°
2026-04-24 02:50 34.05879 -117.62275 944 ft 11 kts 295°
2026-04-24 02:50 34.05952 -117.62310 944 ft 10 kts
2026-04-24 02:51 34.05999 -117.62299 944 ft 3 kts 44°
2026-04-24 02:51 34.06007 -117.62288 944 ft 0 kts 47°